User: anonymous   Login
Location: Caltech
(34.1382°N, 118.1253°W)
Time: 10:35:29
(UTC-07:00)
Language:

Cosmos 1975 - Orbit

View from above orbital plane
View from above orbital plane
View from above satellite
View from above satellite

Ground track
Ground track

The orbit data is extracted from the following two-line orbital elements,

1 19573U 88093A   18112.90883222 +.00000340 +00000-0 +22210-4 0  9998
2 19573 082.5227 045.7621 0013464 329.2084 030.8351 15.04449931585237
Epoch (UTC): 22 April 2018 21:48:43
Eccentricity: 0.0013464
inclination: 82.5227°
perigee height: 544 km
apogee height: 562 km
right ascension of ascending node: 45.7621°
argument of perigee: 329.2084°
revolutions per day: 15.04449931
mean anomaly at epoch: 30.8351°
orbit number at epoch: 58523

The dashed part of the orbit path shows where the satellite is in the earth's shadow,  

DLR